Flag for Brazil Weather past 2 weeks in Porto Alegre, Rio Grande do Sul, Brazil

Now
70 °F

Clear.


Feels Like: 70 °F
Forecast: 69 / 86 °F
Wind: 10 mph from Southeast

Location: Porto Alegre Aero-Porto

Current Time: Mar 1, 2015 at 1:05:59 AM

Latest Report: Mar 1, 2015 at 12:00 AM


Visibility: 10 mi

Pressure: 30.04 "Hg

Humidity: 83%

Dew point: 64 °F

Location of Porto AlegreLocation

Historic Weather in Porto Alegre — Graph

°F

Porto Alegre temperature yesterday

Maximum temperature yesterday: 81 °F (at 1:00 PM)
Minimum temperature yesterday: 66 °F (at 5:00 AM)
Average temperature yesterday: 74 °F

Past Weeks' High & Low Weather Summary

 TemperatureHumidityPressure
High91 °F (Feb 19, 3:00 PM)100% (Feb 17, 4:00 AM)30.12 "Hg (Feb 17, 4:00 AM)
Low32 °F (Feb 24, 8:00 AM)49% (Feb 19, 3:00 PM)29.59 "Hg (Feb 19, 4:00 PM)
Average76 °F80%29.94 "Hg
* Reported Feb 14 1:00 AM — Midnight between Feb 28 and Mar 1, Porto Alegre, Weather by CustomWeather, © 2015

Note: Actual official high and low records may vary slightly from our data, if they occured in-between our weather recording intervals... More about our weather records

Advertising

Porto Alegre weather history for previous 24 hours

 ConditionsComfort  
Time TempWeatherWind HumidityBarometerVisibility
12:00 AM
Sun, Mar 1
70 °FClear.10 mph83%30.04 "Hg10 mi
11:00 PM
Sat, Feb 28
70 °FClear.13 mph78%30.07 "Hg10 mi
10:00 PM72 °FClear.14 mph73%30.07 "Hg10 mi
9:00 PM72 °FClear.15 mph73%30.07 "Hg10 mi
8:00 PM73 °FClear.17 mph65%30.04 "Hg10 mi
7:00 PM73 °FPassing clouds.16 mph65%30.04 "HgN/A
6:00 PM77 °FPassing clouds.20 mph61%30.04 "HgN/A
5:00 PM79 °FScattered clouds.18 mph54%30.04 "HgN/A
4:00 PM81 °FScattered clouds.16 mph54%30.01 "HgN/A
3:00 PM81 °FPartly sunny.15 mph54%30.01 "HgN/A
2:00 PM81 °FPartly sunny.13 mph54%30.04 "HgN/A
1:00 PM81 °FPartly sunny.14 mph58%30.04 "HgN/A
12:00 PM79 °FPartly sunny.10 mph61%30.04 "HgN/A
11:00 AM79 °FPartly sunny.12 mph61%30.04 "HgN/A
10:00 AM79 °FPartly sunny.12 mph61%30.04 "HgN/A
9:00 AM75 °FScattered clouds.13 mph74%30.04 "HgN/A
8:00 AM73 °FScattered clouds.5 mph83%30.04 "HgN/A
7:00 AM68 °FPartly sunny.No wind94%30.01 "HgN/A
6:00 AM66 °FPartly sunny.2 mph100%29.98 "HgN/A
5:00 AM66 °FPassing clouds.2 mph94%29.98 "HgN/A
4:00 AM68 °FPassing clouds.1 mph88%29.98 "HgN/A
3:00 AM70 °FPassing clouds.3 mph83%29.98 "HgN/A
2:00 AM70 °FClear.5 mph83%29.98 "Hg10 mi
1:00 AM73 °FPassing clouds.6 mph74%29.98 "HgN/A
Weather by CustomWeather, © 2015

See weather overviewHow to use our weather pages